Weather History for KDIJ - October, 2013

Change the Weather History Date:

Thursday, October 3, 2013

  Actual Average (KRXE) Record (KRXE)
Temperature  
Mean Temperature 34 °F 49 °F  
Max Temperature 39 °F 64 °F 83 °F (2010)
Min Temperature 30 °F 35 °F 26 °F (1978)
Degree Days  
Heating Degree Days 30 16  
Month to date heating degree days 46  
Since 1 July heating degree days 404  
Cooling Degree Days 0 0  
Month to date cooling degree days 0  
Year to date cooling degree days 208  
Moisture  
Dew Point 30 °F    
Average Humidity 87    
Maximum Humidity 100    
Minimum Humidity 56    
Precipitation  
Precipitation 0.13 in 0.03 in 0.64 in (1983)
Month to date precipitation 0.10  
Year to date precipitation 9.98  
Sea Level Pressure  
Sea Level Pressure 29.94 in    
Wind  
Wind Speed 8 mph (NNW)    
Max Wind Speed 16 mph    
Max Gust Speed 16 mph    
Visibility 6 miles    
Events Fog , Rain , Snow , Thunderstorm    
T = Trace of Precipitation, MM = Missing Value Source: NWS Daily Summary

Daily Weather History Graph

Daily Weather History Graph

Search for Another Location

Airport or City:

Trip Planner

Search our weather history database for the weather conditions in past years. The results will help you decide how hot, cold, wet, or windy it might be!

Date:

Astronomy

Oct. 03, 2013 Rise Set
Actual Time 7:24 AM MDT 7:01 PM MDT
Civil Twilight 6:56 AM MDT 7:29 PM MDT
Nautical Twilight 6:22 AM MDT 8:03 PM MDT
Astronomical Twilight 5:49 AM MDT 8:36 PM MDT
Moon 6:00 AM MDT (10/3) 6:12 PM MDT (10/3)
Length of Visible Light 12h 33m
Length of Day
11h 36m
Waning Crescent, 2% of the Moon is Illuminated
Oct 3
Waning Crescent
Oct 4
New
Oct 11
First Quarter
Oct 18
Full
Oct 26
Last Quarter

Hourly Weather History & Observations

Time (MDT) Temp. Windchill Dew Point Humidity Pressure Visibility Wind Dir Wind Speed Gust Speed Precip Events Conditions
12:56 AM 34.9 °F 32.0 °F 32.9 °F 92% 29.74 in 10.0 mi North 3.5 mph - N/A   Mostly Cloudy
1:56 AM 38.8 °F 32.6 °F 34.9 °F 86% 29.73 in 10.0 mi West 9.2 mph 16.1 mph 0.00 in   Overcast
2:11 AM 37.4 °F 33.8 °F 33.8 °F 87% 29.86 in 4.0 mi WNW 4.6 mph - 0.02 in Rain , Thunderstorm Light Thunderstorms and Rain
2:34 AM 35.6 °F 28.6 °F 33.8 °F 93% 29.87 in 10.0 mi East 9.2 mph - 0.03 in Rain , Thunderstorm Light Thunderstorms and Rain
2:43 AM 37.4 °F 32.1 °F 35.6 °F 93% 29.87 in 10.0 mi Variable 6.9 mph - 0.03 in   Overcast
2:56 AM 36.9 °F 32.2 °F 34.9 °F 93% 29.72 in 10.0 mi ENE 5.8 mph - 0.03 in   Overcast
3:56 AM 36.9 °F 32.2 °F 34.9 °F 93% 29.70 in 7.0 mi NE 5.8 mph - 0.01 in Rain Light Rain
4:03 AM 37.4 °F 32.8 °F 35.6 °F 93% 29.84 in 7.0 mi East 5.8 mph - 0.00 in Rain Light Rain
4:35 AM 37.4 °F 28.2 °F 35.6 °F 93% 29.87 in 2.5 mi WSW 16.1 mph - 0.03 in Rain , Thunderstorm Light Thunderstorms and Rain
4:42 AM 35.6 °F 27.5 °F 33.8 °F 93% 29.88 in 2.5 mi WSW 11.5 mph - 0.04 in Rain , Thunderstorm Light Thunderstorms and Rain
4:44 AM 35.6 °F 27.5 °F 33.8 °F 93% 29.88 in 3.0 mi SW 11.5 mph - 0.04 in Rain , Thunderstorm Light Thunderstorms and Rain
4:56 AM 34.9 °F 29.9 °F 34.0 °F 97% 29.77 in 9.0 mi SSW 5.8 mph - 0.04 in Rain Light Rain
5:56 AM 34.9 °F 27.1 °F 32.9 °F 92% 29.78 in 10.0 mi SSE 10.4 mph - 0.00 in   Overcast
6:28 AM 33.8 °F 25.8 °F 32.0 °F 93% 29.89 in 2.5 mi South 10.4 mph - 0.00 in Snow Light Snow
6:31 AM 33.8 °F 26.4 °F 32.0 °F 93% 29.88 in 1.8 mi SSE 9.2 mph - 0.00 in Snow Light Snow
6:35 AM 33.8 °F 26.4 °F 32.0 °F 93% 29.88 in 1.0 mi SSE 9.2 mph - 0.01 in Snow Light Snow
6:44 AM 33.8 °F 26.4 °F 32.0 °F 93% 29.87 in 1.0 mi ESE 9.2 mph - 0.01 in Snow Light Snow
6:56 AM 32.9 °F 26.7 °F 32.0 °F 96% 29.80 in 2.0 mi SSE 6.9 mph - 0.01 in Snow Light Snow
7:05 AM 33.8 °F 27.7 °F 32.0 °F 93% 29.87 in 10.0 mi SE 6.9 mph - 0.00 in Snow Light Snow
7:14 AM 33.8 °F 27.0 °F 32.0 °F 93% 29.86 in 10.0 mi SE 8.1 mph - 0.00 in Snow Light Snow
7:56 AM 32.9 °F 26.7 °F 32.0 °F 96% 29.81 in 6.0 mi South 6.9 mph - 0.01 in   Overcast
8:40 AM 33.8 °F 25.3 °F 32.0 °F 93% 29.89 in 10.0 mi SSW 11.5 mph - 0.00 in   Overcast
8:56 AM 32.9 °F 25.3 °F 32.0 °F 96% 29.83 in 10.0 mi South 9.2 mph - 0.00 in   Overcast
9:56 AM 34.9 °F 26.2 °F 30.0 °F 82% 29.83 in 10.0 mi South 12.7 mph - N/A   Overcast
10:56 AM 34.9 °F 26.6 °F 26.1 °F 70% 29.87 in 10.0 mi South 11.5 mph - N/A   Clear
11:56 AM 37.9 °F 32.7 °F 27.1 °F 65% 29.87 in 10.0 mi SSE 6.9 mph - N/A   Overcast
12:46 PM 39.2 °F 34.2 °F 24.8 °F 56% 29.93 in 10.0 mi SW 6.9 mph - N/A   Mostly Cloudy
12:56 PM 39.9 °F 34.5 °F 25.2 °F 56% 29.87 in 10.0 mi West 8.1 mph - N/A   Mostly Cloudy
1:42 PM 35.6 °F 28.6 °F 26.6 °F 70% 29.95 in 3.0 mi South 9.2 mph - 0.00 in Snow Light Snow
1:56 PM 36.0 °F 31.1 °F 26.1 °F 67% 29.89 in 9.0 mi Variable 5.8 mph - 0.00 in Snow Light Snow
2:05 PM 37.4 °F 32.8 °F 26.6 °F 65% 29.96 in 10.0 mi Variable 5.8 mph - 0.00 in Snow Light Snow
2:56 PM 39.9 °F 32.5 °F 26.1 °F 58% 29.89 in 10.0 mi South 12.7 mph - 0.03 in   Mostly Cloudy
3:56 PM 38.8 °F 32.6 °F 28.0 °F 65% 29.91 in 10.0 mi WSW 9.2 mph - N/A   Scattered Clouds
4:27 PM 37.4 °F 29.3 °F 30.2 °F 75% 29.99 in 10.0 mi North 12.7 mph - N/A   Mostly Cloudy
4:56 PM 37.9 °F 29.2 °F 32.0 °F 79% 29.93 in 10.0 mi North 15.0 mph - N/A   Overcast
5:06 PM 39.2 °F 30.5 °F 32.0 °F 75% 30.00 in 10.0 mi North 16.1 mph - N/A   Overcast
5:56 PM 34.9 °F 27.1 °F 30.0 °F 82% 29.98 in 10.0 mi North 10.4 mph - N/A   Mostly Cloudy
6:30 PM 35.6 °F 27.5 °F 28.4 °F 75% 30.03 in 10.0 mi NNE 11.5 mph - N/A   Overcast
6:49 PM 33.8 °F 26.4 °F 28.4 °F 81% 30.04 in 10.0 mi NNE 9.2 mph - N/A   Overcast
6:56 PM 34.0 °F 27.2 °F 28.0 °F 79% 30.00 in 10.0 mi NE 8.1 mph - N/A   Mostly Cloudy
7:25 PM 33.8 °F 29.6 °F 28.4 °F 81% 30.04 in 10.0 mi ENE 4.6 mph - 0.00 in   Overcast
7:56 PM 32.9 °F 25.9 °F 30.0 °F 89% 30.03 in 5.0 mi WNW 8.1 mph - 0.00 in Snow Light Snow
8:01 PM 33.8 °F 27.0 °F 30.2 °F 87% 30.06 in 2.5 mi NW 8.1 mph - 0.00 in Snow Light Snow
8:08 PM 32.0 °F 23.6 °F 30.2 °F 93% 30.06 in 1.2 mi NW 10.4 mph - 0.00 in Snow Light Snow
8:12 PM 32.0 °F 24.8 °F 30.2 °F 93% 30.06 in 0.8 mi NW 8.1 mph - 0.00 in Snow Light Snow
8:21 PM 32.0 °F 24.8 °F 30.2 °F 93% 30.06 in 0.5 mi North 8.1 mph - 0.00 in Fog , Snow Snow
8:33 PM 30.2 °F 25.4 °F 30.2 °F 100% 30.05 in 1.0 mi East 4.6 mph - 0.00 in Snow Light Snow
8:36 PM 30.2 °F - 30.2 °F 100% 30.05 in 1.5 mi Calm Calm - 0.00 in Snow Light Snow
8:40 PM 30.2 °F 26.7 °F 28.4 °F 93% 30.05 in 3.0 mi East 3.5 mph - 0.00 in Snow Light Snow
8:56 PM 31.1 °F - 30.0 °F 96% 30.04 in 10.0 mi Calm Calm - 0.00 in   Mostly Cloudy
9:09 PM 30.2 °F 25.4 °F 30.2 °F 100% 30.05 in 8.0 mi WNW 4.6 mph - 0.00 in Snow Light Snow
9:24 PM 30.2 °F 23.4 °F 30.2 °F 100% 30.05 in 2.5 mi WNW 6.9 mph - 0.00 in Snow Light Snow
9:39 PM 30.2 °F 21.9 °F 30.2 °F 100% 30.05 in 5.0 mi NW 9.2 mph - 0.00 in Snow Light Snow
10:47 PM 30.2 °F 21.3 °F 28.4 °F 93% 30.05 in 2.0 mi NNW 10.4 mph - 0.00 in Snow Light Snow
10:56 PM 31.1 °F 21.4 °F 29.1 °F 92% 30.03 in 2.0 mi NNW 12.7 mph - 0.00 in Snow Light Snow
11:00 PM 30.2 °F 20.2 °F 28.4 °F 93% 30.05 in 3.0 mi NNW 12.7 mph - 0.00 in Snow Light Snow
11:15 PM 30.2 °F 20.8 °F 28.4 °F 93% 30.06 in 6.0 mi North 11.5 mph - 0.00 in Snow Light Snow
11:29 PM 30.2 °F 19.8 °F 28.4 °F 93% 30.05 in 3.0 mi North 13.8 mph - 0.00 in Snow Light Snow
11:36 PM 30.2 °F 20.2 °F 28.4 °F 93% 30.06 in 2.5 mi North 12.7 mph - 0.00 in Snow Light Snow
11:39 PM 30.2 °F 19.3 °F 28.4 °F 93% 30.05 in 3.0 mi North 15.0 mph - 0.00 in Snow Light Snow
11:56 PM 31.1 °F 21.9 °F 28.0 °F 88% 30.02 in 9.0 mi North 11.5 mph - 0.00 in Snow Light Snow